Theta_e
334 334 333 333 332 331 331 330 328 330 330 327 327 326 324 323 323 323 322 326 332 330 329 328 328 328 328 328 327 326 326 326 326 327 328 327 329 332 334 335 337 334 332 332 332 333 332 332 332 331 331 330 329 329 329 328 328 329 329 329 328 328 328 327 327 328 328 327 327 327 327 327 327 327 327 327 327 327 327 327 327 327 327 327 327
333 333 333 332 332 329 329 328 327 327 329 329 326 326 325 323 323 324 325 328 331 330 328 327 328 327 328 328 328 328 327 327 327 327 327 327 328 332 335 336 335 335 334 334 334 333 333 332 331 332 331 331 330 328 329 330 329 329 329 329 329 328 328 328 328 328 328 328 328 327 327 327 327 327 327 327 327 327 327 327 326 327 326 326 326
333 333 332 331 331 330 329 327 326 326 328 329 326 327 324 324 325 324 325 331 329 328 327 327 326 327 327 328 328 328 328 328 328 329 329 328 328 328 332 334 335 336 337 337 333 331 331 331 331 331 331 331 331 331 330 330 330 329 329 329 328 327 328 328 327 327 327 327 327 327 327 327 327 327 327 327 327 327 326 326 327 326 327 327 326
333 332 332 331 330 329 328 328 327 326 328 327 327 326 325 324 326 328 328 331 327 327 326 327 325 327 327 328 328 328 328 329 329 329 329 328 327 327 327 331 334 335 335 335 335 332 331 332 332 331 331 332 331 331 331 330 329 329 328 328 328 328 327 327 328 327 327 326 326 327 327 327 327 327 327 327 327 327 327 326 326 327 326 327 326
333 333 334 331 331 330 329 330 329 329 328 328 327 326 328 328 327 329 329 327 327 326 328 326 326 326 327 328 328 328 328 329 328 329 328 327 326 325 327 328 330 336 335 332 335 333 333 333 333 333 333 333 332 332 332 330 329 329 329 329 328 328 328 328 328 328 328 328 328 327 327 327 327 327 326 326 326 327 326 326 326 325 325 325 326
333 332 332 330 331 332 331 331 329 329 328 327 327 327 328 327 327 329 331 327 326 325 325 326 328 328 328 328 327 327 328 328 327 327 327 327 325 326 325 325 325 326 328 333 336 337 336 334 333 333 333 333 333 332 331 331 331 331 331 331 330 329 329 329 329 329 329 329 329 329 328 328 328 328 328 327 326 326 326 326 326 326 326 326 325
334 333 331 329 330 331 331 332 331 329 329 328 329 329 328 328 329 328 326 325 325 324 326 326 327 327 327 328 328 328 326 326 327 328 328 326 327 325 325 325 324 328 329 327 339 339 338 337 334 333 333 333 333 333 333 333 333 333 332 333 332 331 331 330 330 330 330 330 330 330 330 329 328 327 327 327 327 327 327 327 327 326 326 326 325
334 332 331 329 329 331 332 331 332 331 329 329 331 329 328 329 329 328 326 325 325 323 324 325 326 326 328 328 328 328 326 326 327 327 326 327 326 325 324 324 325 327 334 327 328 335 338 337 337 337 334 334 334 333 334 334 335 334 334 334 333 333 333 333 332 332 331 331 332 331 331 330 329 328 328 328 328 328 328 327 327 326 326 326 325
333 332 331 330 329 331 331 332 332 331 331 330 330 329 329 329 326 327 328 325 325 324 324 324 326 327 328 328 327 327 327 327 327 325 326 326 325 325 325 325 329 336 324 326 329 331 336 337 337 336 335 336 335 334 334 335 335 335 335 334 334 334 334 334 334 333 333 333 332 332 332 331 331 330 329 329 328 328 328 328 327 327 326 326 325
333 331 331 331 330 330 331 332 332 331 331 330 329 329 329 329 326 325 327 326 325 325 325 326 327 327 327 326 327 328 328 328 329 329 326 326 326 326 325 326 327 325 325 327 329 329 330 333 336 336 335 334 334 336 334 334 335 335 335 334 334 334 333 334 333 333 333 333 333 332 332 332 332 332 331 329 329 329 329 329 328 327 326 326 325
332 332 330 331 330 329 331 332 332 331 331 329 328 329 328 328 328 326 327 325 325 325 327 327 327 326 326 326 328 328 329 329 328 326 326 326 328 329 326 324 325 324 325 327 327 328 326 324 324 324 328 335 334 334 335 334 334 335 334 335 333 333 333 333 334 333 334 333 333 333 332 332 332 331 332 331 331 330 330 329 328 327 327 326 325
331 331 331 332 330 330 330 331 331 331 330 328 327 328 328 327 327 327 326 327 326 326 329 328 327 326 326 327 328 328 328 328 328 327 327 327 328 326 324 325 324 323 323 325 325 326 326 327 328 324 326 331 335 334 334 334 333 334 334 334 333 333 333 334 334 334 334 333 333 334 333 332 332 332 331 331 330 329 331 330 327 326 325 325 325
332 331 330 334 331 329 329 330 331 331 330 329 328 328 328 328 327 327 327 325 326 327 328 328 325 324 326 326 326 328 329 328 327 328 328 328 325 323 324 326 323 324 323 323 325 327 328 326 323 322 324 325 327 334 335 333 333 334 334 333 334 335 334 333 334 335 334 334 333 333 332 331 332 332 331 331 330 330 331 329 327 327 327 327 328
332 331 331 331 329 329 329 331 332 330 329 329 328 331 328 327 327 326 327 326 325 327 327 325 321 321 320 320 323 325 327 327 327 328 329 328 325 323 323 324 324 324 325 325 324 326 327 326 321 323 324 323 324 323 326 329 331 332 333 332 334 334 333 335 335 335 335 334 333 331 329 329 330 331 332 332 331 330 330 328 328 328 329 329 328
332 332 330 330 329 329 330 331 331 330 328 327 328 327 327 327 327 327 326 324 325 327 325 320 320 323 323 320 317 316 321 324 326 326 326 327 327 326 324 324 325 324 322 322 323 324 326 326 322 322 323 323 322 323 325 330 330 332 331 331 333 334 334 335 335 335 334 333 331 330 329 329 331 331 331 332 332 331 331 330 330 329 329 327 326
331 332 331 330 329 328 329 329 329 330 329 328 328 327 326 327 326 326 326 324 325 325 324 322 323 321 314 313 316 317 313 317 320 323 326 326 327 325 327 325 323 323 321 323 325 326 326 322 322 322 322 323 325 325 327 326 331 333 332 331 332 333 334 334 333 332 333 332 330 329 328 328 329 331 332 332 332 331 331 330 330 328 326 325 324
331 332 332 330 329 329 329 329 330 330 330 329 328 328 327 327 327 326 325 325 323 323 323 321 323 321 318 315 313 312 313 317 320 320 324 324 325 325 327 325 324 322 321 323 324 326 327 323 321 322 323 326 326 326 324 325 327 332 330 332 333 334 332 332 331 331 330 329 329 328 326 327 330 331 332 332 331 331 331 330 329 326 325 324 323
332 333 332 331 329 329 329 330 330 330 330 330 329 328 327 326 327 327 326 326 325 322 322 322 323 323 319 316 318 313 312 318 318 312 321 324 324 327 327 326 325 323 320 323 325 325 326 324 321 324 325 325 324 323 322 323 326 322 323 327 328 331 330 330 329 329 329 329 328 327 327 329 330 331 331 331 331 330 329 328 326 325 324 323 323
332 332 332 331 330 330 330 330 331 330 330 329 328 327 327 327 327 327 327 326 324 321 322 322 319 322 321 321 319 316 320 318 314 316 314 319 323 323 324 325 325 324 322 322 323 323 323 324 324 323 322 322 321 320 319 321 325 327 330 327 325 322 323 325 330 329 329 328 328 328 328 327 329 329 330 330 329 328 327 325 324 323 322 321 322
332 331 331 331 330 330 331 331 331 330 330 329 329 328 328 327 328 328 327 327 325 322 321 321 320 320 321 318 317 318 319 314 318 316 314 313 316 322 323 322 320 320 322 321 321 322 323 323 323 321 321 320 317 316 315 314 314 315 318 321 321 321 321 322 321 322 327 328 328 328 328 326 326 327 327 327 326 325 325 324 322 322 321 321 321
332 331 331 330 331 330 331 330 330 330 331 329 329 329 328 327 327 326 325 326 326 324 323 322 321 320 318 313 316 316 314 314 317 312 313 314 316 317 317 320 319 318 318 318 321 322 323 323 322 320 319 317 315 314 313 312 312 312 318 318 318 319 319 317 314 314 317 327 327 327 327 326 325 324 324 324 324 324 323 321 320 320 319 319 320
328 329 329 330 330 330 330 331 331 331 331 329 328 328 327 328 327 327 326 326 325 325 324 323 323 321 322 317 314 313 313 313 313 312 315 316 315 316 318 317 316 318 317 317 320 321 322 322 320 319 317 315 314 313 312 311 310 313 315 318 319 318 320 318 313 315 316 319 326 326 326 326 325 324 323 323 324 323 322 321 320 320 319 319 319
327 328 329 330 330 330 331 331 331 331 331 329 328 328 327 327 327 327 326 326 325 324 323 322 323 321 320 319 318 319 316 312 314 313 312 311 314 317 318 320 317 315 316 316 319 321 322 320 319 317 316 314 313 313 310 309 316 316 318 317 318 318 318 314 312 313 317 321 323 324 324 324 324 324 323 323 323 323 322 321 321 320 319 319 318
328 328 328 329 329 330 331 331 330 330 330 329 329 328 327 327 327 326 326 326 325 325 323 322 322 321 320 319 319 320 316 315 317 317 316 314 315 315 317 318 317 313 316 315 319 321 321 320 318 317 315 313 312 311 311 312 313 319 315 317 317 316 318 318 313 314 313 317 320 323 323 323 323 323 323 323 323 323 323 322 322 320 318 318 318
325 326 327 328 328 327 326 328 329 330 330 328 328 328 327 326 326 326 326 325 325 324 323 323 323 322 321 319 319 319 318 316 319 317 314 316 317 315 317 319 313 313 315 315 312 318 320 319 318 316 315 313 313 312 311 311 311 317 316 316 315 314 316 320 319 314 313 313 317 322 325 325 324 324 323 322 322 322 323 323 316 313 316 317 317
324 325 326 327 328 328 328 328 329 329 328 328 328 328 327 326 326 326 325 326 325 324 324 323 323 322 322 320 320 320 317 319 319 317 316 316 315 315 315 315 310 313 313 313 310 314 312 314 314 314 313 312 311 309 309 310 310 317 315 311 312 313 313 317 319 315 312 312 313 317 320 322 324 323 323 323 322 318 314 310 311 310 308 309 312
325 326 327 327 328 328 327 328 328 328 327 327 328 327 327 327 326 326 326 325 325 324 322 322 323 321 320 321 321 319 319 318 319 318 319 318 317 316 316 313 310 310 311 310 307 313 311 305 311 312 312 310 309 308 308 307 311 316 315 309 307 312 312 313 317 316 311 309 308 309 311 312 312 313 314 313 311 310 313 314 311 308 309 311 314
326 327 327 329 328 328 328 327 326 326 326 326 327 327 326 326 325 325 325 326 324 323 322 322 322 321 321 319 320 320 320 320 320 319 319 319 318 318 318 316 313 309 308 308 304 307 306 308 305 309 310 310 309 307 310 310 308 315 314 307 307 307 309 310 314 314 312 311 309 307 306 305 306 307 308 309 312 313 314 314 311 309 309 313 316
327 328 327 328 328 327 327 325 325 325 326 326 327 327 326 326 325 324 324 324 324 323 321 322 322 321 320 320 321 321 320 320 320 319 319 319 319 320 319 317 316 312 309 307 304 302 301 302 307 305 309 308 308 307 309 306 310 310 305 305 304 302 308 310 310 309 309 308 307 306 305 305 306 308 311 313 313 313 312 310 310 309 311 314 314
327 327 327 326 326 330 325 324 323 324 325 326 327 327 326 325 324 324 324 324 323 321 322 322 321 321 320 320 318 319 319 320 320 319 319 319 319 319 318 316 315 314 312 310 308 302 301 301 302 304 305 307 308 307 307 306 313 309 304 304 303 301 308 308 307 304 305 306 304 304 303 305 307 310 313 312 312 311 308 308 308 309 311 314 313
326 324 325 325 325 325 324 323 323 324 324 325 325 325 325 324 322 322 321 323 323 321 321 322 320 322 320 320 317 318 319 321 320 319 318 319 318 318 317 316 315 312 313 310 306 306 302 304 301 302 305 306 308 308 308 307 311 309 303 302 302 306 309 306 306 305 304 305 302 302 305 306 306 308 310 312 312 311 310 311 309 310 312 313 310
325 325 325 325 325 324 324 323 323 323 324 324 325 324 324 324 323 322 321 322 322 322 320 320 323 322 321 320 319 319 319 319 320 319 319 319 319 318 317 315 313 312 311 309 308 308 302 303 303 301 305 305 307 307 305 307 310 310 303 302 303 310 306 301 305 305 305 304 303 304 309 310 308 309 311 312 311 312 311 310 310 311 312 309 307
325 324 323 323 324 324 324 323 323 322 323 323 323 323 323 322 321 321 321 322 322 320 321 320 321 321 321 321 320 319 319 321 320 319 319 319 319 318 317 314 313 310 311 308 307 302 300 301 302 302 303 306 305 306 305 304 305 305 305 302 302 302 301 300 300 303 304 303 302 302 303 304 304 309 308 307 309 309 308 306 308 309 308 306 305
325 325 324 323 323 324 323 323 322 322 322 323 321 322 322 321 320 321 321 321 321 321 320 321 321 322 321 321 321 319 320 321 319 320 320 319 319 319 317 316 314 311 309 310 305 302 300 300 300 301 302 305 304 304 305 304 304 304 303 302 301 301 302 299 298 299 303 303 302 301 302 303 303 304 304 303 304 304 305 304 303 303 306 304 303
324 324 324 323 323 323 323 322 321 321 322 322 321 321 321 321 321 320 322 322 322 321 321 321 322 321 320 320 320 320 320 318 318 318 317 320 320 320 318 317 316 315 311 310 306 302 300 299 300 300 301 302 301 302 303 304 304 306 303 302 302 303 303 299 298 298 300 302 302 302 301 301 302 302 302 303 303 302 303 303 303 302 302 303 302
324 323 323 323 322 323 323 321 320 320 320 321 321 322 322 321 321 321 321 321 322 322 322 322 322 321 321 319 319 319 319 319 318 317 318 318 318 318 318 316 316 317 315 309 307 307 301 301 300 301 301 301 299 299 302 302 302 304 304 302 301 301 301 301 299 298 300 301 302 302 302 302 301 301 301 301 302 303 302 301 302 301 301 301 302
323 322 323 323 322 322 322 320 319 318 319 321 321 320 320 320 321 321 321 320 320 320 321 322 324 321 321 321 321 320 319 318 315 316 317 317 318 319 318 318 317 318 315 310 307 304 301 301 301 300 300 300 299 298 301 300 299 301 301 302 301 301 300 300 301 301 302 301 301 302 301 301 300 300 300 300 301 301 301 301 301 301 301 301 301
322 322 322 322 322 321 321 320 318 317 318 319 320 319 318 317 317 319 319 319 319 319 318 319 321 320 321 321 320 320 320 319 317 316 316 318 318 317 318 318 318 317 313 306 304 302 302 302 301 299 298 300 298 297 299 300 299 299 299 300 301 301 301 300 300 301 301 300 300 300 302 301 301 301 301 300 300 299 299 300 301 301 301 301 301
322 322 322 322 321 321 319 316 315 314 315 316 317 316 315 315 315 315 316 317 316 316 316 317 319 319 319 319 318 319 320 320 319 317 316 316 318 316 317 317 317 315 308 304 302 301 301 301 299 300 299 299 299 299 299 299 298 298 298 298 299 301 302 301 301 302 302 301 301 300 300 300 302 302 301 300 300 300 300 300 300 301 301 301 300
322 321 321 320 317 315 313 311 309 309 309 309 308 310 312 314 313 312 314 315 314 313 314 315 317 318 318 318 317 318 319 319 319 317 317 317 316 315 314 315 315 314 309 304 302 301 300 300 300 299 298 298 298 298 299 298 297 297 299 299 297 298 300 302 302 303 303 301 301 301 301 301 300 301 301 301 301 301 301 301 301 301 302 300 299
321 321 318 315 312 309 307 306 306 306 306 305 304 306 311 310 311 312 313 314 314 313 312 313 314 314 313 312 312 312 317 319 311 311 315 317 317 315 313 312 314 316 313 307 304 301 300 300 300 300 298 297 298 298 296 296 297 298 298 300 299 300 300 300 302 302 303 302 302 300 301 301 300 300 300 299 300 301 301 302 302 302 301 300 299
317 315 314 312 310 307 305 303 303 303 302 301 302 301 306 309 311 312 312 311 313 314 315 314 313 314 313 312 315 315 312 310 305 300 302 307 309 314 315 314 314 314 314 311 305 303 301 299 299 299 298 298 298 299 299 299 300 299 297 299 298 299 298 299 300 301 303 302 302 301 303 303 301 301 300 300 301 302 301 300 300 301 301 299 299
313 313 313 310 307 306 304 303 301 300 299 299 296 296 298 305 310 311 311 311 311 314 315 315 313 311 308 308 308 312 310 310 304 298 297 296 295 296 303 309 313 314 311 307 306 304 301 300 299 299 298 298 299 299 299 299 298 299 297 297 299 298 298 296 298 299 300 303 301 301 302 303 301 301 301 301 302 301 300 301 300 300 300 299 299
311 310 309 307 305 303 302 301 299 298 297 296 293 296 297 302 307 311 311 313 313 313 313 313 312 308 306 305 304 306 308 309 307 305 301 298 297 297 296 296 295 295 299 305 304 301 300 300 299 299 298 297 296 298 298 300 299 298 299 298 299 298 297 297 295 298 300 302 301 299 301 301 300 301 301 303 303 302 301 301 300 299 299 299 299
308 306 304 303 302 301 301 299 298 298 297 294 293 296 298 301 302 307 310 310 311 310 311 310 308 306 304 303 302 301 302 310 309 305 305 305 301 299 299 298 297 296 295 296 298 304 304 303 302 300 299 298 301 301 300 300 299 300 299 299 298 298 299 298 299 299 299 301 300 300 300 302 299 299 299 302 303 303 302 300 299 299 299 299 298
304 302 301 300 299 299 300 299 298 298 297 295 294 297 298 298 300 305 311 310 310 309 309 308 305 303 301 300 300 299 299 302 303 308 308 308 308 307 304 301 300 300 297 296 297 299 303 306 306 304 304 303 304 303 305 304 304 302 299 299 299 300 299 301 302 302 302 303 303 299 296 301 300 299 299 301 302 301 302 301 299 299 299 298 298
302 300 298 297 297 298 298 299 298 297 295 293 295 297 298 298 300 303 307 306 304 302 301 300 299 298 297 298 297 296 297 299 301 306 311 310 308 305 302 300 299 299 299 299 300 302 303 304 303 304 303 303 304 304 303 302 305 305 305 305 302 302 303 301 303 302 304 303 302 300 300 300 295 296 300 302 302 301 301 300 299 299 299 298 298
299 298 297 297 296 297 298 298 298 296 295 293 296 297 297 297 299 304 303 301 299 298 297 297 297 297 296 296 296 295 295 296 296 298 303 308 307 304 301 299 297 296 298 299 295 296 301 301 302 302 301 300 297 300 300 300 301 300 300 301 302 300 300 300 302 297 297 298 300 300 297 296 294 298 298 297 296 300 301 300 299 299 299 298 297
297 296 295 295 296 296 297 297 296 295 295 293 294 296 296 297 299 302 300 298 297 296 296 296 297 298 297 295 294 293 293 293 293 293 296 299 300 300 299 297 296 295 296 298 296 294 294 294 294 295 295 296 296 295 295 295 298 298 299 301 301 299 300 298 297 297 299 296 295 302 298 299 296 297 298 295 295 298 299 299 297 297 298 297 297
296 296 296 296 296 296 296 295 296 295 295 294 293 294 296 296 300 301 299 297 295 294 294 294 295 296 299 301 298 293 292 292 291 292 294 297 296 295 295 294 294 294 294 295 298 298 295 295 294 294 295 295 296 296 296 297 297 300 303 301 299 298 297 295 296 293 296 296 297 300 300 297 295 296 298 298 296 295 296 294 294 296 297 297 296
297 297 297 296 296 297 297 297 299 296 295 295 293 293 294 296 300 300 299 297 296 294 294 294 294 295 295 296 296 295 294 292 290 291 292 295 295 294 294 294 294 294 293 293 295 296 296 297 298 298 298 299 300 300 300 297 298 300 301 300 299 298 297 296 296 295 294 293 294 300 300 298 300 297 299 299 298 298 294 293 294 294 295 296 295
Wind_Speed
4 4 3 3 3 3 3 3 3 3 3 3 3 2 1 1 1 2 3 5 6 5 4 4 4 4 7 6 5 5 4 3 3 3 3 2 3 7 10 9 6 6 8 8 8 8 8 8 8 8 9 8 8 8 9 8 8 8 8 8 8 8 8 8 8 9 9 9 9 8 9 10 10 11 11 12 12 12 13 14 14 14 14 15 16
5 4 5 4 3 2 2 2 4 2 3 4 3 4 4 2 2 1 3 4 5 4 4 4 4 3 4 6 6 5 4 3 3 3 2 2 2 4 9 7 7 6 6 7 7 7 7 8 8 8 8 9 8 8 8 8 8 7 7 7 7 6 7 8 8 7 8 8 8 7 8 9 9 10 10 10 11 12 12 13 13 14 14 14 14
5 5 4 4 3 4 3 2 2 3 3 4 3 3 3 3 3 3 4 5 5 4 4 5 4 3 3 5 5 5 4 3 3 3 3 3 3 3 4 7 6 5 4 4 5 6 6 6 7 8 8 8 8 8 8 8 8 7 7 7 6 6 6 6 6 6 6 6 7 7 7 8 8 9 10 10 10 11 11 11 12 13 13 13 14
5 4 5 4 4 4 3 3 4 3 4 3 3 2 3 2 2 2 4 5 5 4 3 5 4 3 3 4 4 5 4 4 3 3 3 3 3 3 2 2 5 7 8 5 4 5 6 7 7 8 7 7 7 8 8 8 7 7 6 6 5 5 5 5 6 6 6 6 6 6 7 7 7 7 8 8 9 10 10 10 11 11 12 13 13
4 5 4 5 4 4 4 4 4 4 4 3 2 3 3 3 2 3 6 5 4 4 4 4 5 3 3 4 4 4 4 4 3 3 3 3 3 3 2 2 3 7 7 5 3 5 5 6 7 8 8 7 8 8 8 8 7 7 6 6 6 5 5 5 5 5 5 5 5 6 6 6 6 6 6 7 7 8 9 10 10 10 11 12 12
6 4 4 4 4 4 5 5 4 4 4 3 3 3 4 4 3 5 6 5 5 4 5 6 4 4 3 3 4 3 4 4 3 3 3 3 3 3 3 3 3 3 2 4 1 3 4 5 7 7 7 7 8 8 8 8 8 7 7 7 6 7 7 6 6 6 6 5 5 5 5 5 5 5 5 5 5 6 7 9 9 10 10 10 11
5 6 5 4 5 5 5 5 4 3 4 3 4 4 4 5 5 6 5 4 3 3 4 5 7 5 4 4 4 3 3 3 3 3 3 3 4 3 3 3 3 4 3 2 4 6 4 5 6 6 6 7 7 7 8 8 8 8 8 8 8 7 7 7 6 6 6 6 6 6 5 5 4 4 4 4 5 6 6 7 9 9 9 9 10
5 5 5 5 5 5 5 4 3 3 3 3 4 5 4 5 3 7 7 4 4 4 4 5 5 6 5 4 4 3 3 3 3 3 3 3 3 3 3 3 3 3 4 4 3 4 7 6 5 4 5 6 6 7 8 8 8 9 9 9 8 8 8 7 6 6 5 5 6 5 5 5 4 4 4 4 4 6 7 7 8 8 8 9 8
6 5 6 5 4 3 4 4 4 5 4 4 4 5 6 5 3 2 7 6 5 5 5 4 6 5 5 5 4 4 3 2 2 3 3 3 3 3 3 3 3 5 3 4 3 3 5 7 6 5 3 1 1 7 8 8 8 9 9 8 7 7 7 7 7 6 5 4 4 4 4 4 5 4 4 3 4 6 8 8 7 7 8 8 8
6 6 5 5 3 4 4 5 5 5 5 5 5 5 5 6 5 2 4 7 5 6 6 6 6 6 4 5 5 3 3 2 1 2 3 3 3 3 3 3 3 3 3 3 3 3 3 4 6 5 4 1 1 3 5 6 7 7 7 6 6 5 5 2 2 3 3 1 2 2 3 2 3 5 5 4 5 5 7 8 7 7 8 8 7
7 6 6 5 4 3 4 5 5 5 5 5 5 5 5 4 7 4 3 3 6 5 6 6 6 6 5 6 5 5 3 2 2 2 2 2 2 3 3 2 3 3 3 3 2 3 2 2 2 2 1 4 1 2 4 1 2 7 5 4 3 2 2 2 2 2 2 1 1 3 2 1 2 6 7 6 5 6 8 8 7 8 8 7 7
7 6 6 6 5 5 4 4 5 5 6 6 5 6 7 6 5 7 6 6 5 5 6 7 7 7 6 6 6 4 4 2 2 2 2 1 2 2 3 3 3 3 3 3 3 2 2 2 2 1 1 1 2 5 6 6 4 4 5 5 5 3 3 2 2 4 4 5 7 8 6 4 2 3 7 8 7 7 8 8 9 9 8 7 6
6 6 7 6 6 4 4 4 5 5 6 6 6 6 6 7 6 4 8 7 4 4 5 6 8 6 5 6 5 3 4 4 3 3 2 2 2 1 3 4 3 3 2 2 2 2 2 2 1 1 2 2 2 1 4 5 4 4 5 5 5 2 3 2 5 8 9 10 10 9 8 7 5 4 5 7 7 7 8 9 9 8 7 7 8
6 6 6 6 6 5 5 6 5 5 4 4 4 5 6 6 7 5 2 6 5 6 7 6 3 4 6 4 4 3 4 4 4 3 2 2 2 1 2 2 3 2 2 2 2 3 2 1 2 3 2 2 1 1 0 1 2 4 4 1 4 2 2 7 9 11 11 11 9 8 7 6 4 4 6 6 7 9 10 9 8 9 10 11 11
6 6 6 6 6 6 6 5 5 5 6 5 5 6 6 8 8 8 6 1 3 4 6 1 6 4 5 5 3 1 0 2 2 2 2 2 3 2 2 3 3 2 1 2 3 2 2 2 2 2 2 2 2 2 2 2 3 5 6 5 4 6 8 10 11 11 10 9 8 8 7 6 5 4 5 7 9 10 10 9 10 11 12 11 11
3 4 5 5 6 6 5 5 5 4 6 7 6 7 6 6 6 6 8 7 4 4 3 1 6 9 4 1 2 0 2 2 2 1 1 3 3 3 2 2 2 2 1 2 2 2 2 1 2 2 2 2 3 3 3 2 3 3 5 6 4 7 8 8 9 8 8 8 8 7 5 7 7 6 6 7 10 10 10 11 12 12 11 11 11
9 7 6 7 6 5 6 5 6 6 5 6 7 8 8 8 8 8 8 9 7 4 5 2 5 1 8 5 3 2 2 1 3 2 1 2 2 3 3 2 2 1 1 1 1 2 2 2 2 3 3 3 3 3 3 3 3 3 4 6 5 6 7 8 8 7 6 6 7 7 7 8 8 8 9 9 10 11 12 12 12 11 11 11 11
8 8 7 6 7 7 6 6 5 6 6 7 7 6 7 7 8 8 8 6 10 7 5 2 5 3 0 1 4 5 6 3 2 3 0 1 3 3 4 4 4 2 2 2 3 2 2 2 3 3 3 4 3 4 3 3 3 4 4 5 7 6 6 6 7 7 7 7 7 7 8 9 10 11 11 11 12 11 12 13 12 11 11 11 11
8 8 7 7 7 6 6 6 6 6 6 6 7 8 8 8 7 6 7 7 5 9 8 6 2 4 2 0 1 2 7 8 4 3 3 1 2 2 2 3 3 3 3 3 3 3 3 3 4 3 3 3 3 3 3 3 4 5 7 8 8 7 6 5 7 7 7 7 8 8 8 9 10 11 13 13 13 13 12 12 11 11 11 11 11
9 7 6 6 6 6 5 5 6 6 6 7 8 7 6 5 7 7 6 7 8 8 7 6 8 5 2 1 1 3 4 2 4 5 4 6 3 2 2 2 2 2 2 3 3 4 4 4 4 4 3 3 3 3 3 3 3 3 4 7 7 7 6 6 6 5 6 7 8 8 9 9 9 10 11 11 11 11 10 10 10 10 10 10 10
7 7 4 2 4 7 6 6 6 6 6 6 6 7 8 7 6 5 6 6 6 5 7 7 6 6 4 2 3 3 2 1 4 2 3 4 2 3 3 1 1 0 0 1 3 4 4 5 4 4 4 3 2 3 3 3 4 3 4 7 7 6 7 7 8 8 7 7 8 9 9 9 10 10 9 10 10 10 9 9 10 9 9 10 10
3 3 4 4 5 4 6 7 7 7 6 6 6 6 5 7 8 8 7 7 5 5 7 6 7 5 4 5 3 3 3 2 0 2 3 1 4 7 4 5 5 2 1 2 3 4 4 5 4 4 4 4 3 3 3 3 3 3 4 8 7 7 8 8 8 8 7 6 7 9 9 10 10 10 10 10 11 11 10 10 9 9 9 9 10
5 5 4 5 5 5 5 6 6 6 6 6 7 7 6 7 7 7 7 7 6 5 4 4 6 5 5 6 7 9 8 6 7 5 4 3 4 4 4 4 2 3 3 1 3 3 4 4 5 4 4 4 3 4 3 3 4 4 7 8 8 8 8 7 8 7 7 6 7 8 9 9 10 10 10 10 10 10 10 10 9 9 9 9 9
6 7 8 7 7 7 6 6 6 6 7 7 6 6 6 6 6 6 6 6 6 6 5 5 6 5 5 5 6 7 4 5 7 7 7 6 7 6 6 4 2 1 1 2 1 3 4 4 3 4 4 4 3 3 3 4 4 7 5 7 8 8 7 7 7 6 6 6 7 8 8 9 9 9 9 9 9 9 10 9 9 8 8 8 8
6 7 8 11 9 5 4 7 6 7 7 6 6 7 7 6 6 6 6 7 7 7 7 7 7 7 7 5 5 5 6 2 6 6 3 5 6 6 3 3 3 2 0 3 1 0 1 2 3 3 4 4 3 4 3 4 4 6 7 6 9 8 8 7 6 6 6 6 5 6 8 9 9 9 8 9 9 9 10 10 9 7 5 5 6
6 8 8 9 8 10 8 8 7 7 7 7 7 7 7 7 6 6 6 6 6 7 7 6 6 6 5 6 5 6 4 4 6 6 6 7 6 7 7 2 2 3 1 2 0 2 1 1 2 2 3 3 3 3 3 3 4 7 7 5 6 8 8 7 6 5 6 5 3 3 3 4 7 7 7 7 9 10 10 10 9 8 7 6 6
7 6 6 8 8 8 9 9 7 7 6 6 6 6 7 6 6 6 6 6 6 6 5 6 6 6 5 6 6 5 5 5 6 6 6 7 8 8 9 8 2 2 2 1 1 3 3 0 2 3 3 3 3 2 2 2 4 6 6 5 4 7 7 7 6 6 6 6 5 5 4 5 7 8 8 8 7 7 8 8 8 8 7 6 6
6 6 6 8 8 9 8 7 6 6 6 6 6 6 6 6 5 5 6 4 6 6 6 6 6 6 6 4 5 5 5 5 5 6 6 6 6 7 8 9 9 5 1 3 2 4 2 3 0 2 4 4 3 3 2 2 2 6 6 4 4 4 6 7 7 7 7 6 6 6 6 6 7 7 7 7 6 6 6 7 7 7 6 5 5
7 7 7 7 8 8 7 6 5 5 6 6 6 6 6 6 6 6 6 5 5 6 5 6 5 5 5 6 6 5 5 4 4 5 5 5 6 7 8 10 8 9 7 5 5 5 3 3 5 4 4 5 5 3 3 3 3 3 3 4 4 3 5 7 7 7 7 7 7 7 7 7 7 8 7 6 6 6 7 7 7 6 5 4 4
4 5 6 7 6 7 7 6 5 5 6 6 6 6 7 6 6 6 6 6 6 4 4 5 5 5 4 4 3 4 3 5 5 5 5 6 7 7 7 4 6 10 8 8 7 5 3 3 2 4 3 5 5 4 3 4 5 4 3 4 4 4 6 7 7 7 7 7 7 7 8 8 8 8 8 7 7 7 7 7 7 6 5 5 5
6 2 5 6 7 6 7 6 5 6 6 6 6 6 6 6 5 6 5 5 6 5 4 4 4 5 4 4 3 3 3 4 4 5 4 5 6 6 5 5 5 3 7 5 4 5 4 7 6 2 5 4 5 4 3 4 5 5 4 4 4 6 7 5 7 7 7 8 8 8 8 8 9 9 8 8 7 7 7 7 7 6 7 7 6
2 7 4 5 7 7 6 7 6 6 6 6 7 7 6 6 6 6 5 5 5 5 4 3 4 4 5 4 4 4 4 3 4 4 5 5 5 6 5 5 4 4 5 4 6 5 2 3 4 3 5 5 4 6 4 3 3 6 4 4 4 6 5 4 6 7 8 8 8 8 9 9 9 9 8 8 9 8 8 8 8 9 8 8 8
4 3 5 6 6 7 7 6 7 6 6 6 6 6 6 6 5 6 6 5 5 4 4 4 3 4 5 5 4 4 4 5 5 4 5 5 4 5 5 5 5 4 6 4 5 1 0 0 3 3 3 6 3 4 5 4 4 3 4 3 4 4 4 5 5 7 8 8 8 9 10 10 10 10 10 10 10 10 9 9 9 9 9 9 10
5 4 5 7 6 6 6 6 6 6 6 6 5 6 6 6 5 5 6 6 5 5 5 5 4 5 5 5 4 4 4 5 5 5 5 5 5 5 5 6 6 5 4 5 3 5 4 0 2 2 3 3 4 3 7 7 5 4 5 4 3 4 4 4 5 5 9 9 9 9 10 11 11 11 11 11 11 11 11 10 10 11 11 11 11
6 6 5 8 7 6 6 6 6 6 6 6 6 6 6 7 7 5 5 6 6 6 6 6 6 5 4 5 5 4 4 4 4 4 3 4 4 6 6 5 6 5 4 4 5 5 4 4 3 4 4 4 5 5 5 4 3 5 4 5 5 3 3 4 5 4 8 10 11 11 11 12 12 12 12 12 12 12 12 12 12 12 13 13 13
6 5 4 6 7 6 7 6 6 6 6 6 6 6 7 7 6 7 6 6 6 7 7 6 6 5 6 5 5 5 5 5 4 5 5 5 6 5 4 3 4 5 5 4 4 6 6 6 4 6 5 5 4 1 4 3 5 5 5 3 2 4 4 4 5 6 8 12 13 13 13 13 13 13 13 14 14 13 13 13 13 13 13 13 12
6 6 5 5 7 7 7 7 6 6 6 6 7 5 4 5 6 6 6 6 6 6 6 6 6 6 6 6 6 5 5 5 4 4 5 5 5 6 6 5 4 5 4 5 6 4 5 7 4 1 3 2 2 2 6 6 3 3 2 4 4 5 4 4 4 6 8 11 12 14 14 14 14 14 15 14 14 14 13 13 13 13 14 13 12
6 7 7 7 7 7 7 6 6 6 6 6 7 6 5 4 4 5 6 6 5 5 5 5 5 6 6 6 5 6 6 7 7 5 5 6 5 6 7 6 6 5 4 4 4 5 6 6 6 3 2 6 3 2 4 6 6 4 3 3 2 3 4 5 7 6 4 5 5 7 10 12 14 16 16 15 15 14 14 14 14 14 14 14 14
9 8 7 8 6 6 5 5 5 5 5 5 5 5 4 4 5 5 5 5 4 4 4 5 5 5 5 5 5 6 7 7 7 7 6 5 6 7 8 8 7 5 5 5 5 6 6 4 2 3 4 2 3 4 1 4 3 3 5 3 5 6 5 7 8 6 5 6 8 11 10 9 10 10 13 15 15 16 16 16 16 16 15 16 15
10 9 8 6 3 4 5 5 4 3 4 4 4 4 4 5 5 4 5 5 4 4 4 4 4 5 5 4 5 6 6 6 6 6 7 7 6 6 6 5 6 7 6 5 5 5 4 4 5 5 3 4 2 1 3 4 3 2 5 7 9 7 8 6 7 7 3 4 7 6 7 8 10 12 14 13 15 16 16 15 17 16 17 16 17
7 8 8 4 6 6 5 5 5 3 4 4 3 4 5 4 4 5 4 5 5 5 4 3 2 2 4 4 3 2 2 5 6 3 0 3 5 5 4 4 5 6 3 3 5 5 4 4 3 2 3 3 4 5 5 4 8 11 4 5 6 6 2 3 6 4 6 6 5 4 7 7 7 8 7 7 10 13 14 17 14 17 18 18 19
4 8 9 7 8 7 6 5 4 4 3 2 1 3 3 4 5 4 4 5 5 5 5 5 5 5 4 5 5 10 9 7 6 6 7 7 6 5 7 7 5 5 7 6 5 5 6 6 7 6 5 6 7 8 7 8 2 1 3 5 8 3 0 5 6 7 5 5 7 8 10 6 7 8 6 9 11 8 8 8 11 14 16 20 20
6 9 10 9 7 8 9 8 6 4 2 1 1 4 3 6 6 6 6 4 4 5 5 6 6 6 5 5 4 5 5 6 6 10 11 11 12 9 6 4 3 8 9 7 7 8 7 7 5 5 6 7 7 4 4 1 2 4 2 4 4 1 4 3 7 6 1 8 6 6 11 4 5 8 8 8 10 6 7 10 14 15 16 15 15
5 8 10 9 9 8 7 7 7 5 3 3 3 3 3 5 6 7 6 6 4 4 5 6 6 6 6 5 4 3 3 4 3 6 11 14 16 16 16 14 14 12 6 4 6 5 5 6 6 7 5 4 3 4 3 2 3 3 5 4 5 5 5 5 4 7 2 4 5 3 9 3 6 7 8 9 8 5 7 10 11 11 12 13 11
7 10 9 9 8 6 8 9 7 5 3 4 3 3 5 7 8 9 6 6 7 6 6 7 6 6 5 5 4 4 4 7 4 5 7 9 12 16 15 14 15 15 15 14 9 3 4 6 6 3 2 3 4 2 3 2 2 2 2 3 3 4 4 5 8 6 4 4 4 4 6 6 4 4 7 9 8 6 5 8 10 10 11 12 12
7 10 9 10 7 5 5 8 8 6 4 5 3 6 10 11 13 12 7 8 8 8 7 7 6 6 5 6 5 4 4 3 3 5 7 6 6 7 8 8 8 10 13 13 13 13 9 7 7 5 0 1 3 2 1 1 3 3 3 3 2 3 4 7 6 6 4 5 5 3 3 8 4 4 7 9 5 5 6 9 11 11 11 12 12
7 10 11 10 7 6 5 5 7 7 4 6 5 11 13 14 15 13 9 9 9 8 8 7 7 6 6 6 6 5 4 4 4 3 7 6 6 7 8 8 8 8 9 9 8 7 7 7 7 6 3 2 3 2 1 1 0 0 1 1 1 2 2 2 4 3 6 2 3 2 6 4 1 2 6 7 5 6 6 6 9 10 10 10 11
5 6 8 8 8 7 6 5 7 8 7 10 9 11 14 15 16 10 9 10 9 9 8 7 7 6 5 6 6 6 5 6 7 7 6 6 7 8 9 7 8 8 8 5 7 7 6 6 6 5 3 3 3 4 3 2 2 1 1 2 3 2 1 1 2 3 1 1 2 4 3 3 1 2 5 4 2 5 4 4 5 5 7 8 9
7 6 9 8 6 8 8 7 8 8 8 9 11 9 11 16 14 9 10 10 9 9 8 6 7 6 5 5 6 6 6 6 6 7 4 6 8 8 8 8 7 8 7 6 7 8 9 10 11 11 10 11 11 12 12 10 7 2 4 6 6 4 4 2 3 1 2 3 2 5 2 4 2 3 5 4 2 3 5 5 5 5 2 6 9
4 8 7 10 9 9 10 9 7 9 8 10 12 10 8 9 13 11 9 10 9 9 8 7 7 7 8 13 8 6 6 5 7 8 5 5 7 6 7 7 7 8 6 4 3 5 7 9 10 11 11 11 11 11 11 11 11 7 7 6 2 1 1 1 2 2 5 4 3 0 1 3 4 1 2 5 3 2 3 3 3 4 5 2 5
6 8 8 10 10 10 10 10 12 12 9 10 13 12 12 9 9 9 10 10 10 7 7 8 6 6 6 8 10 7 5 5 9 9 8 7 7 5 6 8 8 7 2 2 3 5 4 5 5 4 7 7 6 6 6 10 11 8 6 4 2 4 2 1 1 2 3 3 2 1 1 3 5 3 0 4 3 3 1 2 2 3 3 2 1
Wind_Direction
152 155 140 146 140 146 159 155 150 160 150 155 155 167 141 113 71 59 72 89 105 118 123 113 117 130 133 134 135 129 124 119 124 119 111 114 127 135 136 135 125 126 124 131 143 137 129 124 130 129 114 110 111 104 105 107 104 98 96 93 90 94 90 86 84 81 82 82 81 76 75 75 77 75 71 70 70 70 69 65 65 67 68 65 63
155 153 156 156 155 155 163 170 172 177 174 175 176 158 165 121 92 102 96 97 110 138 134 124 115 122 131 135 138 135 129 126 111 102 93 88 103 127 130 107 113 127 144 146 145 140 130 128 126 120 120 125 120 118 121 117 107 102 100 98 95 93 93 90 89 84 83 81 83 81 74 75 76 76 76 74 73 70 70 72 70 68 68 69 68
156 159 158 158 161 165 188 185 194 207 199 197 163 170 150 150 161 167 127 113 122 138 134 123 116 107 116 129 133 126 126 116 109 103 94 89 79 88 120 122 129 132 121 107 118 122 127 130 125 121 126 128 129 125 116 108 108 111 106 101 100 101 103 102 99 103 101 100 98 95 89 81 79 80 80 80 78 77 74 72 73 71 68 65 65
156 162 163 167 174 180 182 190 216 218 210 203 177 139 137 134 138 133 104 116 123 125 117 116 109 106 122 127 125 124 122 123 116 104 105 94 86 73 74 84 122 106 95 88 107 143 147 143 141 139 140 138 127 123 119 116 122 122 120 121 128 125 123 120 117 114 114 110 107 103 100 98 92 86 84 83 81 79 79 76 72 70 69 66 64
166 172 172 176 179 183 188 205 209 207 209 209 151 122 122 115 94 97 99 102 117 117 94 86 101 106 115 119 112 110 115 113 108 107 104 101 91 80 65 76 95 108 113 135 153 151 142 140 140 140 141 141 135 134 132 132 133 131 133 138 136 134 127 121 120 121 123 123 119 119 114 110 106 102 95 90 89 88 84 83 77 73 71 71 67
164 176 174 177 188 195 198 209 208 205 204 187 145 148 127 122 130 109 118 131 142 142 117 106 95 100 100 103 97 103 109 104 108 113 114 105 106 101 101 95 96 89 99 136 120 148 137 142 136 138 139 137 142 140 141 141 138 139 141 145 144 144 143 146 148 145 144 139 128 121 119 120 117 111 106 99 95 94 91 89 86 82 77 74 74
170 173 176 178 191 197 197 208 200 195 193 175 150 148 140 139 140 113 101 107 120 103 99 101 117 112 94 100 108 106 94 107 112 120 114 119 110 105 107 101 88 85 82 51 89 99 101 120 133 137 136 145 151 151 148 145 142 148 150 149 149 151 155 154 155 151 146 143 141 133 131 124 124 124 123 116 106 97 93 92 90 85 79 72 70
171 172 177 185 199 192 202 182 175 175 179 150 140 145 143 137 151 132 120 119 122 91 82 99 99 105 99 96 96 106 103 106 120 119 126 122 112 115 113 108 100 111 93 79 75 88 92 85 67 76 137 156 161 155 152 152 154 157 158 153 155 160 163 166 166 164 163 164 154 146 139 137 139 144 140 136 120 102 98 93 88 89 81 76 71
174 173 174 191 209 199 190 168 158 160 156 148 152 148 141 136 132 155 139 140 131 114 97 100 104 100 101 93 83 104 94 109 120 133 115 113 125 136 132 130 143 106 86 81 71 62 75 82 84 93 80 52 158 172 167 177 170 167 168 160 160 162 171 169 172 171 174 173 146 152 157 160 164 168 158 147 123 109 102 104 98 92 90 81 74
176 170 176 189 190 190 179 155 155 152 146 150 158 148 143 140 131 99 126 130 136 134 123 118 110 109 93 83 95 98 109 114 129 127 131 144 139 148 162 146 104 109 100 89 74 62 56 59 73 79 121 167 354 15 200 194 186 179 177 174 172 171 158 164 156 159 173 173 170 113 126 177 208 186 163 162 144 128 111 106 102 92 87 82 74
175 171 174 180 184 192 175 155 151 157 146 142 139 143 139 138 139 118 71 68 129 128 129 123 113 105 91 84 87 88 89 104 67 108 120 143 147 136 108 102 112 112 110 105 91 84 82 61 59 49 68 148 151 222 245 277 235 211 195 194 189 168 182 224 216 187 161 180 143 80 50 287 216 201 185 181 158 141 123 116 108 97 88 84 74
176 172 175 175 184 190 172 150 153 154 148 145 151 155 148 132 135 131 109 93 84 121 127 122 109 103 97 86 79 80 84 92 99 84 84 93 60 91 114 99 108 112 118 124 116 109 89 87 73 37 37 71 211 212 222 222 224 237 219 222 218 199 260 242 209 170 140 115 105 86 83 77 108 171 192 183 162 127 122 113 98 93 90 86 86
176 170 179 181 184 173 155 159 155 164 160 166 162 161 151 140 134 131 132 123 117 127 128 123 116 99 95 103 98 110 126 122 126 129 129 109 109 221 100 92 109 120 136 129 120 99 95 94 91 61 43 30 21 60 196 193 209 230 230 230 241 208 232 185 134 129 115 105 89 79 72 73 89 122 172 188 153 130 114 109 104 102 100 92 80
178 177 177 180 176 171 175 172 163 165 156 148 153 148 136 134 135 111 109 139 140 156 154 134 73 131 136 120 83 73 102 125 137 140 125 123 84 93 90 117 95 81 78 99 97 106 106 100 73 66 45 53 44 22 30 178 170 225 215 186 237 195 159 140 130 113 104 91 85 76 72 69 57 95 125 172 160 129 121 114 106 95 92 91 83
181 177 177 183 176 170 185 179 163 150 140 149 152 149 154 152 154 145 136 68 100 158 175 109 129 113 84 90 105 67 94 85 78 81 113 128 134 123 99 104 115 63 53 86 97 93 114 100 77 62 50 49 33 26 30 78 112 99 101 181 194 145 142 129 111 101 94 92 88 80 72 65 61 76 112 138 149 131 123 114 105 95 86 83 80
167 189 188 181 172 180 179 174 132 180 154 154 161 155 155 156 149 151 144 140 157 179 193 182 141 133 122 144 124 64 156 202 142 114 94 122 130 115 110 104 76 96 55 94 119 111 75 73 80 65 61 56 39 42 46 41 105 111 121 136 136 145 134 122 111 106 101 92 88 81 67 67 68 88 116 122 132 127 116 109 102 94 89 84 81
196 195 187 179 176 178 179 179 156 170 156 155 167 171 171 166 161 156 169 157 161 163 203 166 186 162 134 129 89 193 225 156 139 78 105 133 122 130 129 121 143 114 108 128 120 112 121 87 73 66 60 53 48 49 49 47 48 73 95 129 146 147 131 118 118 114 108 99 94 90 78 75 75 81 93 106 116 116 112 105 96 94 91 86 84
203 193 187 177 180 181 180 175 172 160 165 171 169 165 167 168 175 169 171 184 160 163 179 226 206 198 129 100 167 173 168 178 154 159 177 148 152 155 153 165 161 149 149 149 127 131 126 117 92 80 66 61 57 52 51 55 75 80 82 84 87 89 102 117 120 118 113 108 109 102 100 89 82 88 99 107 108 107 101 97 97 96 95 93 90
209 192 188 183 179 178 179 179 171 169 169 165 164 175 177 180 176 175 178 163 154 162 177 185 187 258 252 291 195 147 150 143 189 107 163 151 172 138 144 136 140 155 167 156 135 128 118 120 111 94 78 75 75 63 55 50 65 76 81 83 82 82 87 101 121 123 119 122 118 115 112 109 97 97 99 104 102 98 95 98 101 100 99 99 98
197 193 191 184 175 175 173 172 170 174 170 177 173 175 174 182 185 184 167 170 169 165 171 167 176 210 182 177 74 100 124 65 144 159 135 155 153 91 83 106 88 168 168 151 143 142 128 123 118 107 96 82 86 84 83 76 66 67 75 83 78 71 64 69 84 100 124 124 119 115 114 115 117 107 106 104 105 102 101 101 101 100 100 100 101
192 188 180 201 186 177 173 170 179 178 180 176 173 166 170 173 181 174 177 176 179 166 157 179 183 182 129 51 86 105 64 42 132 100 141 147 100 150 147 94 48 277 129 126 140 136 141 139 130 127 127 114 102 101 89 86 82 79 85 91 88 88 89 88 88 90 90 117 124 123 119 116 118 123 119 114 112 116 112 108 105 105 104 103 101
158 125 156 215 245 206 179 178 184 175 176 176 163 164 168 172 179 182 182 178 181 165 176 179 185 174 167 149 122 112 74 72 124 120 81 64 161 178 171 162 170 209 115 136 139 138 136 136 133 135 132 132 127 116 106 103 101 95 101 105 105 104 103 101 100 100 104 113 123 126 124 122 121 124 127 127 125 124 120 117 117 113 110 107 103
125 132 178 227 241 249 191 186 179 174 171 167 171 171 173 172 177 180 179 178 179 178 180 181 177 168 166 164 162 170 174 173 182 183 155 145 120 142 140 164 151 165 242 165 141 148 142 142 148 147 147 145 142 128 124 125 110 116 120 114 112 111 110 112 116 123 130 129 131 130 130 129 129 128 131 132 132 130 127 124 120 117 114 111 109
160 156 172 171 207 226 210 182 182 176 178 174 170 173 171 169 167 173 179 184 178 178 177 174 182 178 178 180 178 185 175 162 176 169 167 164 155 154 150 129 113 233 173 75 75 151 153 162 166 157 155 149 146 142 136 122 129 130 120 122 121 120 123 124 131 141 146 149 140 144 143 141 139 139 138 140 138 132 126 124 120 117 114 113 109
174 175 185 169 180 234 242 207 187 186 176 170 177 172 166 168 172 172 170 176 183 182 181 189 181 181 186 194 184 186 194 163 151 153 113 125 134 133 120 132 135 167 110 125 144 46 162 179 162 158 152 147 147 147 143 139 143 137 130 129 130 129 131 136 136 136 138 140 157 164 157 156 156 153 146 143 149 142 119 91 70 60 67 84 100
189 193 184 180 186 186 204 211 190 182 174 176 174 174 167 169 173 173 178 183 174 180 188 185 185 191 165 172 190 195 183 169 157 144 148 134 143 153 143 139 108 158 85 91 126 111 288 118 120 128 127 146 147 147 146 151 145 147 137 135 134 134 138 138 135 131 122 118 125 125 135 152 162 157 146 109 86 86 89 91 87 78 66 57 57
195 200 183 183 190 185 192 203 187 180 175 175 172 168 169 165 173 177 176 173 176 173 183 175 182 177 176 183 185 184 179 176 161 171 162 170 157 157 151 143 89 97 117 79 114 209 184 355 143 141 153 145 139 154 151 156 157 153 136 132 138 142 140 143 142 136 128 122 115 107 98 90 85 88 92 102 108 107 103 98 102 94 85 75 61
191 182 191 185 184 185 190 192 181 172 173 172 170 170 166 163 166 170 175 167 168 176 184 179 189 182 181 174 167 196 179 173 178 171 178 168 155 157 163 157 150 167 156 166 178 235 174 161 17 179 158 156 158 151 158 150 157 162 141 136 140 148 155 154 151 144 141 138 132 128 123 118 116 116 120 126 135 125 112 112 116 111 101 90 69
188 186 184 186 177 176 181 179 175 175 174 175 172 170 166 165 168 170 175 171 166 182 174 183 190 174 168 176 188 183 184 172 176 178 173 160 170 171 174 170 171 152 165 191 218 193 224 175 174 228 170 162 163 164 152 164 182 166 156 149 149 158 174 166 159 157 153 150 150 148 146 146 146 150 150 147 145 143 135 134 133 131 129 123 107
208 177 178 174 172 171 167 164 170 170 175 171 171 169 162 166 170 174 174 164 168 164 183 177 175 170 162 166 171 161 167 170 181 177 173 172 171 180 183 177 164 166 167 175 211 196 179 215 185 182 195 176 162 162 158 172 188 162 177 162 159 170 185 179 174 170 167 165 162 162 165 167 170 169 168 166 164 159 157 152 149 153 161 167 159
314 264 181 171 169 168 162 161 164 169 165 165 162 159 157 156 160 159 159 163 164 173 180 170 173 160 161 171 165 153 158 176 165 167 175 167 180 179 176 156 169 152 159 148 156 249 163 191 224 217 173 180 164 156 160 172 181 166 178 177 176 182 180 188 186 187 183 180 176 177 181 186 188 187 182 184 179 175 176 173 173 181 185 183 174
323 312 278 192 171 164 166 161 165 161 161 162 161 157 157 163 160 154 157 150 163 172 168 169 160 168 160 168 180 171 164 162 169 171 178 184 173 174 171 170 157 141 132 146 176 201 213 198 193 190 162 149 158 159 169 173 187 177 184 189 188 178 179 192 198 201 200 192 189 191 196 196 199 201 200 199 198 195 192 189 189 195 199 190 188
144 211 272 275 188 164 161 165 160 162 159 162 164 156 157 161 166 161 157 153 159 173 161 167 163 165 168 172 186 180 160 167 179 172 171 176 171 178 167 163 159 158 144 144 173 220 332 37 137 159 144 138 161 175 167 177 180 186 191 204 192 182 186 192 203 212 215 211 205 205 210 209 209 210 210 211 209 208 202 200 202 204 207 203 199
134 168 228 255 232 161 161 162 163 161 163 163 163 159 162 166 174 168 166 165 168 172 173 176 178 173 166 172 188 180 173 175 166 178 174 162 169 169 177 175 179 182 182 145 168 162 201 296 80 68 128 175 163 185 179 180 195 182 198 205 207 199 194 196 202 224 222 224 222 226 225 223 219 219 218 219 219 214 211 209 210 213 215 214 209
151 160 197 242 233 163 163 163 163 166 166 164 168 167 171 174 175 176 175 173 175 177 184 188 184 166 161 179 193 182 162 169 182 164 150 168 159 163 171 178 186 186 185 176 145 187 191 229 171 159 177 179 183 190 192 186 175 180 194 212 208 203 210 196 212 225 226 225 228 228 233 234 233 226 224 224 224 221 219 217 216 218 222 222 218
157 150 142 230 234 170 164 165 167 170 167 166 171 179 178 176 173 176 178 180 181 184 187 188 178 166 175 178 199 180 172 180 188 168 177 154 146 149 165 170 177 185 176 188 193 176 192 184 223 189 181 167 227 163 156 153 165 186 209 215 213 218 216 210 214 227 228 226 227 228 230 234 236 236 232 229 227 225 223 222 220 222 224 227 227
147 145 155 229 218 169 169 168 171 170 175 173 175 181 182 178 180 177 178 179 183 184 187 185 176 172 174 189 188 175 174 186 188 186 169 163 173 168 174 184 198 203 172 187 207 171 159 199 192 182 141 167 170 152 163 163 189 193 206 206 215 225 230 232 230 234 239 234 234 234 233 234 236 237 238 236 234 232 229 227 226 227 228 229 229
163 157 142 218 211 178 170 168 167 169 168 175 176 177 179 182 182 180 177 178 183 181 182 182 179 180 183 193 179 172 180 190 198 192 181 175 163 175 185 195 198 195 181 192 186 189 187 202 170 156 172 170 179 190 180 176 168 190 222 250 259 232 224 247 240 236 229 227 232 237 240 242 241 240 240 239 238 238 235 231 229 229 229 229 227
164 158 157 209 215 170 156 142 151 155 161 171 171 165 170 179 181 177 175 178 178 181 186 186 187 190 190 181 175 178 188 198 191 189 183 173 167 176 185 192 198 168 158 174 178 181 195 169 160 187 164 196 156 181 175 163 156 167 190 215 262 236 221 220 248 240 226 241 239 233 231 230 238 243 244 242 240 238 235 232 231 230 229 228 226
167 152 146 221 178 132 127 119 103 111 130 131 132 146 161 175 176 180 173 173 171 183 188 193 184 190 190 180 179 186 193 195 193 188 174 176 164 172 192 183 168 143 145 149 150 162 165 176 184 185 180 159 149 86 102 123 168 255 213 190 219 231 225 225 232 244 242 212 251 253 242 241 247 246 248 245 242 241 242 242 238 234 231 228 226
149 146 134 196 125 106 90 102 103 90 108 117 126 142 154 164 167 165 169 167 170 171 173 171 123 78 62 65 75 85 82 81 63 66 109 132 164 163 209 163 162 176 187 149 156 160 170 174 187 112 142 160 174 145 147 161 189 210 182 175 235 246 254 289 266 232 230 236 258 257 255 223 241 246 242 248 243 231 237 234 242 240 235 232 228
157 133 131 149 129 131 120 103 100 99 97 105 103 129 146 164 154 151 147 158 156 151 143 117 82 71 67 68 71 83 86 91 103 112 114 126 108 149 173 133 170 183 213 190 175 189 176 183 197 166 162 199 188 193 187 210 192 63 132 159 219 257 50 274 293 250 201 199 240 255 255 219 208 249 232 240 253 215 231 222 232 231 231 231 232
163 151 145 138 139 143 141 138 124 107 85 12 7 119 130 164 142 145 148 143 137 141 137 125 115 98 77 65 56 60 73 83 81 80 79 69 65 70 112 140 143 185 187 188 202 191 189 193 167 169 190 196 212 199 217 139 141 186 172 171 216 238 227 247 268 307 226 196 215 239 270 240 177 238 249 241 253 232 224 235 240 241 246 249 247
166 146 136 138 141 138 128 122 111 108 95 3 1 86 135 151 144 139 139 138 128 99 94 103 102 101 89 72 51 36 36 55 79 79 73 80 85 80 75 77 80 67 65 159 182 177 171 155 168 192 177 192 174 179 215 186 212 181 205 185 189 201 220 231 244 247 263 181 191 214 261 252 160 222 257 253 253 238 229 242 250 245 243 247 249
152 138 133 131 134 142 136 124 113 101 85 10 21 98 129 125 128 111 90 94 94 93 91 93 95 96 98 90 74 37 11 33 62 85 100 95 93 92 89 79 71 75 76 69 68 133 163 148 144 128 179 166 118 140 184 190 168 181 199 214 220 208 211 226 245 268 280 178 165 231 255 266 149 209 235 260 260 250 253 246 246 240 234 229 223
150 128 127 122 121 129 128 121 115 96 75 353 35 120 124 120 109 97 95 93 90 86 88 89 90 87 86 95 85 58 23 36 39 92 107 108 97 89 80 68 63 59 62 62 67 65 75 104 112 111 237 119 128 156 174 164 130 153 139 216 209 203 204 219 234 235 243 158 186 183 266 273 247 208 246 264 267 276 251 249 246 237 228 223 217
139 135 130 121 116 112 98 94 99 82 50 17 80 116 117 109 99 97 94 91 86 83 77 79 81 84 85 87 87 79 57 51 21 59 115 115 104 93 83 72 66 60 53 46 41 48 61 68 84 100 117 101 100 118 45 17 49 153 175 174 180 189 228 290 318 309 298 249 206 161 253 267 302 207 252 260 280 275 257 252 240 236 230 222 215
84 102 87 97 106 98 88 87 89 77 48 45 82 107 112 106 97 92 93 91 90 85 81 78 78 72 70 80 84 72 67 61 25 50 98 114 105 100 92 85 73 63 54 38 40 36 49 61 74 78 79 81 78 75 60 86 49 5 21 77 75 58 55 39 249 306 285 300 180 177 250 271 251 205 274 266 245 257 276 260 266 243 231 219 200
104 82 94 86 82 85 78 71 81 76 56 42 70 84 107 111 100 101 98 93 88 85 77 73 74 71 65 65 71 74 64 58 23 47 59 108 102 98 94 83 72 65 44 21 30 43 55 59 64 60 64 71 67 60 55 52 42 39 82 56 19 14 38 6 316 354 296 327 290 190 200 291 267 215 288 288 321 287 294 334 356 3 296 205 201
64 86 90 86 72 69 71 66 63 80 62 41 61 70 70 95 114 113 110 104 96 95 90 75 75 68 60 67 75 73 72 55 41 57 58 99 97 105 107 99 79 68 42 13 38 39 55 64 70 69 68 73 74 68 60 53 43 37 75 75 295 92 77 152 243 265 291 298 275 124 169 242 312 323 291 295 327 280 337 356 351 353 351 297 246
65 71 74 77 74 63 61 68 63 70 66 44 47 62 67 68 93 110 111 110 103 95 96 88 74 76 68 55 56 63 78 73 69 65 64 85 96 100 112 96 89 78 41 38 74 81 69 71 49 63 53 51 56 61 54 50 52 50 57 74 40 80 60 300 267 309 355 313 281 330 6 291 333 288 310 322 310 287 43 338 345 355 360 10 12